This demonstration page uses our WeatherBlox Daily Observations layout. Learn more.

Left ArrowRight Arrow

Hourly Observations for October 29, 2015

Temp ( °F °C ) Dew Point ( °F °C ) Humidity (%) Winds ( mph kmh ) Pressure ( in mb ) Visibility ( mi km ) Precip ( " mm )
12:53 am 00:53 Clear 58 14.4 56 13.3 93 93 Calm 29.83 1010 10 16 0.00 0.00
1:22 am 01:22 Partly Cloudy 55 13 54 12 94 94 Calm 29.85 1011 10 16 0.00 0.00
1:53 am 01:53 Partly Cloudy 54 12.2 52 11.1 93 93 W 3 6 29.82 1010 10 16 0.00 0.00
2:53 am 02:53 Clear 55 12.8 53 11.7 93 93 Calm 29.83 1010 10 16 0.00 0.00
3:00 am 03:00 Partly Cloudy 54 12 54 12 100 100 Calm 29.85 1011 10 16 0.00 0.00
3:53 am 03:53 Clear 54 12.2 53 11.7 97 97 Calm 29.83 1010 10 16 0.00 0.00
4:35 am 04:35 Partly Cloudy with Mist and Fog 54 12.2 52 11.1 93 93 Calm 29.83 1010 5 8 0.00 0.00
4:53 am 04:53 Partly Cloudy with Mist and Fog 53 11.7 52 11.1 96 96 Calm 29.81 1010 5 8 0.00 0.00
5:53 am 05:53 Mostly Clear with Mist and Fog 52 11.1 51 10.6 97 97 Calm 29.83 1010 5 8 0.00 0.00
6:53 am 06:53 Mostly Clear 54 12.2 53 11.7 97 97 Calm 29.84 1010 10 16 0.00 0.00
7:53 am 07:53 Cloudy 55 12.8 54 12.2 96 96 WNW 3 6 29.85 1011 9 14 0.00 0.00
8:53 am 08:53 Partly Cloudy 58 14.4 55 12.8 90 90 SSW 3 6 29.86 1011 10 16 0.00 0.00
9:53 am 09:53 Mostly Cloudy 62 16.7 57 13.9 84 84 WSW 5 7 29.87 1012 10 16 0.00 0.00
10:13 am 10:13 Mostly Cloudy 62 16.7 58 14.4 86 86 SSW 9 15 29.91 1013 10 16 0.00 0.00
10:53 am 10:53 Cloudy 63 17.2 59 15 87 87 SSW 3 6 29.88 1012 8 13 0.00 0.00
11:53 am 11:53 Cloudy 65 18.3 61 16.1 87 87 Calm 29.89 1012 10 16 0.00 0.00
12:53 pm 12:53 Cloudy 65 18.3 61 16.1 87 87 WNW 3 6 29.90 1012 10 16 0.00 0.00
1:53 pm 13:53 Cloudy 65 18.3 61 16.1 87 87 W 5 7 29.90 1013 9 14 0.00 0.03
2:29 pm 14:29 Cloudy 64 18 61 16 88 88 W 5 7 29.91 1013 10 16 0.00 0.00
2:53 pm 14:53 Cloudy 66 19 61 16 83 83 W 7 11 29.91 1013 10 16 0.00 0.00
3:53 pm 15:53 Cloudy 67 19.4 59 15 76 76 NNW 6 9 29.88 1012 10 16 0.00 0.00
4:12 pm 16:12 Mostly Cloudy 70 21 57 14 64 64 NW 6 9 29.88 1012 10 16 0.00 0.00
4:53 pm 16:53 Sunny 69 20.6 57 13.9 66 66 WNW 8 13 29.88 1012 10 16 0.00 0.00
5:53 pm 17:53 Sunny 69 20.6 54 12.2 59 59 WNW 9 15 29.88 1012 10 16 0.00 0.00
6:53 pm 18:53 Clear 65 18.3 56 13.3 73 73 Calm 29.89 1012 10 16 0.00 0.00
7:53 pm 19:53 Clear 60 15.6 56 13.3 86 86 Calm 29.91 1013 10 16 0.00 0.00
8:53 pm 20:53 Clear 58 14.4 55 12.8 90 90 Calm 29.92 1013 10 16 0.00 0.00
9:53 pm 21:53 Clear 55 12.8 52 11.1 90 90 Calm 29.93 1014 8 13 0.00 0.00
10:53 pm 22:53 Clear 53 11.7 51 10.6 93 93 Calm 29.95 1014 8 13 0.00 0.00
11:53 pm 23:53 Mostly Clear 51 10.6 49 9.4 92 92 Calm 29.96 1015 8 13 0.00 0.00

Powered by AerisWeather